OBJECT F, 42830

Orbit data source: Space-Track

You're viewing an Uncataloged Satellite

Recently launched and/or uncataloged satellites may have evolving metadata. Metadata may include but not limited to: Owner, Maufacturer, Bus, Motor, and Mission.

OBJECT F, 42830 is a satellite in SSO that was launched on Fri, 14 Jul 2017 UTC via a SOYUZ-2-1A launch vehicle from the Tyuratam Missile And Space Complex (TTMTR). Unknown objects in Earth's orbit typically refer to objects detected orbiting the Earth but have not yet been identified or cataloged. These objects could be anything from previously untracked satellites, spent rocket stages, debris from satellite collisions, or even natural meteoroids temporarily captured by Earth's gravity.

Loading next visibility...
OBJECT F details
Identifier
42830, 2017-042F
Orbit
SSO
Last TLE update11 hours ago
Origin
Flag of TBDMoscow Polytech (TBD)
ManufacturerMoscow Polytech
MissionNon-operational Amateur Technology
Bus & MotorCUBESAT 3U, Unknown motor
Mass4 kg wet, 4 kg dry
Launch date (UTC)
2017-07-14 (7 years ago)
Launch vehicle
SOYUZ-2-1A
Launch site
Tyuratam Missile And Space Complex (TTMTR)
Object typeUnknown
Shape & HBRBox + Pyramid, 2 m
Radar Cross Section0.035 m², Small (<0.1 m²)

Expand to show TLE details & history

TLE from 11 hours ago
0 OBJECT F
1 42830U 17042F   24361.11685492  .00471878  00000-0  37965-2 0  9990
2 42830  97.3442 198.1553 0006245  11.2529 348.8871 15.69516491407532
Epoch: 2024-12-26T02:48Z
Definitive object data (Epoch: 2024-12-26T02:48:16.265Z)
Latitude-0.00005°
Longitude60.98667°
Altitude359.309 km
Speed7.696 km/s
True Right ascension13h 12m 37s
True Declination0° 00' 00"
Sunlit
Object was in daylight at TLE epoch
Visualization TLE readout
Latitude25.50234°
Longitude57.95456°
Altitude358.361 km
Speed7.699 km/s
Apparent Right ascension13h 06m 21s
Apparent Declination-45° 02' 22"
Sunlit
Object is in daylight
Visualization observer readout
Local Sidereal Time12:59:04
Azimuth178.707° S
Elevation5.029°
Doppler factor1
Orbital elements
Apogee altitude361.384 km
Perigee altitude352.972 km
Semi-major axis6,735.315 km
Eccentricity0.0006245
Inclination97.3442°
RAAN198.1553°
Arg. of periapsis11.2529°
True anomaly348.8733°
Mean anomaly348.8871°
Eccentric anomaly348.8802°
Mean motion3.92651 °/min
BSTAR0.0037965
Orbital period91.68 mins
Loading maneuver chart data...

OBJECT F Visibility forecast

Observer location: undefined°, undefined

Span
Click to sort rows by Start time (UTC) header in descending order
Start Az.
Max El. time (UTC)
Max El. Az.
Max El.
End time (UTC)
End Az.
5 mins2024-12-26 13:38:21.860Z182.529° SSW2024-12-26 13:41:21.860Z292.785° NW35.505°2024-12-26 13:43:21.860Z335.832° NNW
4 mins2024-12-27 02:19:21.860Z5.94° NNE2024-12-27 02:20:21.860Z336.72° NNW43.724°2024-12-27 02:23:21.860Z196.009° SSW
|